Date String (YYYY-MM-DD hh:mm:ss) UTC,Instrument flags,Ambient pressure (hPa),Sample flow (lpm),Bypass flow (lpm),Sample temperature (°C),Ambient temperature (°C),ASC tube jacket temperature (°C),LED temperature (°C),Box temperature (°C),Sample RH (%),Span deviation,Mass concentration (μg/m³),Mass concentration (μg/m³),Mass concentration (μg/m³)
DateTimeUTC,F1_M11,P_M11,Q1_M11,Q2_M11,T1_M11,T2_M11,T3_M11,T4_M11,T5_M11,U1_M11,ZSPAN_M11,X0_M11,X2_M11,X1_M11
2021-11-22 00:00:00,,0832.4,5.00,0.00,27.6,26.6,00.0,36.6,29.3,08.0,0000.0,0007.94,0002.92,0002.16
2021-11-22 00:01:00,,0832.4,5.01,0.00,27.6,26.6,00.0,36.6,29.3,08.0,0000.0,0007.73,0002.90,0002.18
2021-11-22 00:02:00,,0832.3,4.99,0.00,27.5,26.6,00.0,36.6,29.2,08.0,0000.0,0007.64,0002.87,0002.17
2021-11-22 00:03:00,,0832.3,5.00,0.00,27.5,26.6,00.0,36.6,29.3,08.0,0000.0,0007.44,0002.74,0002.13
2021-11-22 00:04:00,,0832.2,5.00,0.00,27.5,26.6,00.0,36.6,29.3,08.0,0000.0,0007.38,0002.68,0002.09
2021-11-22 00:05:00,,0832.3,5.00,0.00,27.5,26.6,00.0,36.6,29.3,08.0,0000.0,0007.35,0002.63,0002.05
2021-11-22 00:06:00,,0832.3,5.01,0.00,27.5,26.6,00.0,36.6,29.3,08.1,0000.0,0005.70,0002.59,0002.03
2021-11-22 00:07:00,,0832.2,5.00,0.00,27.5,26.6,00.0,36.6,29.3,07.9,0000.0,0005.40,0002.56,0002.02
2021-11-22 00:08:00,,0832.2,4.98,0.00,27.5,26.6,00.0,36.6,29.3,07.9,0000.0,0006.20,0002.46,0002.00
2021-11-22 00:09:00,,0832.3,5.00,0.00,27.5,26.6,00.0,36.6,29.2,07.8,0000.0,0006.40,0002.45,0001.97
2021-11-22 00:10:00,,0832.3,5.01,0.00,27.5,26.6,00.0,36.6,29.2,07.7,0000.0,0006.36,0002.48,0001.94
2021-11-22 00:11:00,,0832.3,5.00,0.00,27.5,26.6,00.0,36.6,29.3,07.8,0000.0,0006.14,0002.48,0001.90
2021-11-22 00:12:00,,0832.3,4.99,0.00,27.5,26.6,00.0,36.6,29.2,07.7,0000.0,0006.35,0002.52,0001.88
2021-11-22 00:13:00,,0832.3,5.00,0.00,27.5,26.5,00.0,36.6,29.2,07.3,0000.0,0006.28,0002.50,0001.84
2021-11-22 00:14:00,,0832.4,5.01,0.00,27.5,26.5,00.0,36.5,29.2,07.2,0000.0,0006.40,0002.43,0001.79
2021-11-22 00:15:00,,0832.3,5.01,0.00,27.5,26.5,00.0,36.5,29.2,07.3,0000.0,0006.51,0002.38,0001.76
2021-11-22 00:16:00,,0832.3,4.99,0.00,27.5,26.5,00.0,36.5,29.2,07.0,0000.0,0006.28,0002.33,0001.70
2021-11-22 00:17:00,,0832.3,5.00,0.00,27.5,26.5,00.0,36.5,29.2,06.8,0000.0,0006.07,0002.23,0001.62
2021-11-22 00:18:00,,0832.2,5.00,0.00,27.5,26.6,00.0,36.5,29.2,06.7,0000.0,0006.93,0002.14,0001.55
2021-11-22 00:19:00,,0832.2,4.99,0.00,27.5,26.6,00.0,36.5,29.2,06.7,0000.0,0005.59,0002.08,0001.51
2021-11-22 00:20:00,,0832.2,5.01,0.00,27.5,26.6,00.0,36.5,29.2,06.7,0000.0,0005.09,0002.03,0001.48
2021-11-22 00:21:00,,0832.3,5.00,0.00,27.5,26.5,00.0,36.5,29.2,06.5,0000.0,0004.89,0001.93,0001.43
2021-11-22 00:22:00,,0832.3,5.00,0.00,27.5,26.6,00.0,36.5,29.2,06.2,0000.0,0005.32,0001.82,0001.38
2021-11-22 00:23:00,,0832.3,4.99,0.00,27.4,26.6,00.0,36.5,29.2,06.0,0000.0,0004.99,0001.68,0001.32
2021-11-22 00:24:00,,0832.2,5.00,0.00,27.4,26.5,00.0,36.5,29.2,05.8,0000.0,0004.82,0001.58,0001.25
2021-11-22 00:25:00,,0832.2,5.01,0.00,27.4,26.5,00.0,36.5,29.1,05.7,0000.0,0004.54,0001.51,0001.21
2021-11-22 00:26:00,,0832.3,5.00,0.00,27.4,26.5,00.0,36.5,29.1,05.7,0000.0,0004.15,0001.43,0001.16
2021-11-22 00:27:00,,0832.3,5.01,0.00,27.4,26.5,00.0,36.5,29.1,05.7,0000.0,0004.02,0001.34,0001.10
2021-11-22 00:28:00,,0832.2,5.00,0.00,27.4,26.4,00.0,36.5,29.1,05.7,0000.0,0003.97,0001.31,0001.05
2021-11-22 00:29:00,,0832.2,5.00,0.00,27.4,26.4,00.0,36.5,29.1,05.7,0000.0,0002.80,0001.26,0001.01
2021-11-22 00:30:00,,0832.3,4.99,0.00,27.4,26.4,00.0,36.5,29.1,05.7,0000.0,0002.64,0001.19,0000.98
2021-11-22 00:31:00,,0832.2,5.00,0.00,27.4,26.4,00.0,36.4,29.0,05.7,0000.0,0002.81,0001.11,0000.92
2021-11-22 00:32:00,,0832.1,5.00,0.00,27.3,26.4,00.0,36.4,29.0,05.7,0000.0,0002.80,0001.06,0000.89
2021-11-22 00:33:00,,0832.1,5.00,0.00,27.3,26.3,00.0,36.4,29.0,05.7,0000.0,0001.96,0001.04,0000.86
2021-11-22 00:34:00,,0832.2,5.00,0.00,27.3,26.3,00.0,36.4,28.9,05.8,0000.0,0001.96,0001.04,0000.85
2021-11-22 00:35:00,,0832.2,5.01,0.00,27.3,26.2,00.0,36.4,28.8,05.8,0000.0,0001.94,0001.03,0000.84
2021-11-22 00:36:00,,0832.2,5.01,0.00,27.3,26.2,00.0,36.4,28.9,05.9,0000.0,0001.89,0001.00,0000.82
2021-11-22 00:37:00,,0832.3,5.00,0.00,27.2,26.2,00.0,36.4,28.9,05.8,0000.0,0001.87,0000.99,0000.81
2021-11-22 00:38:00,,0832.2,5.01,0.00,27.2,26.2,00.0,36.4,28.9,05.9,0000.0,0001.85,0000.98,0000.80
2021-11-22 00:39:00,,0832.2,5.00,0.00,27.2,26.2,00.0,36.4,28.9,05.9,0000.0,0001.78,0000.94,0000.80
2021-11-22 00:40:00,,0832.1,5.00,0.00,27.2,26.2,00.0,36.4,28.9,05.9,0000.0,0001.80,0000.95,0000.80
2021-11-22 00:41:00,,0832.1,4.99,0.00,27.2,26.2,00.0,36.3,28.8,05.8,0000.0,0001.81,0000.96,0000.80
2021-11-22 00:42:00,,0832.3,5.00,0.00,27.1,26.1,00.0,36.3,28.7,05.9,0000.0,0001.56,0000.99,0000.82
2021-11-22 00:43:00,,0832.3,5.00,0.00,27.1,26.1,00.0,36.3,28.7,05.9,0000.0,0001.61,0001.01,0000.83
2021-11-22 00:44:00,,0832.3,5.01,0.00,27.1,26.1,00.0,36.3,28.7,06.0,0000.0,0001.56,0000.99,0000.82
2021-11-22 00:45:00,,0832.3,5.00,0.00,27.1,26.1,00.0,36.3,28.8,06.0,0000.0,0001.61,0001.01,0000.82
2021-11-22 00:46:00,,0832.3,5.01,0.00,27.1,26.1,00.0,36.3,28.7,06.1,0000.0,0001.65,0001.02,0000.82
2021-11-22 00:47:00,,0832.3,4.99,0.00,27.1,26.1,00.0,36.2,28.7,06.0,0000.0,0001.69,0001.04,0000.83
2021-11-22 00:48:00,,0832.2,5.01,0.00,27.1,26.1,00.0,36.2,28.7,06.1,0000.0,0001.76,0001.09,0000.84
2021-11-22 00:49:00,,0832.2,5.00,0.00,27.1,26.1,00.0,36.2,28.7,06.1,0000.0,0001.79,0001.11,0000.85
2021-11-22 00:50:00,,0832.3,5.00,0.00,27.1,26.0,00.0,36.2,28.7,06.1,0000.0,0001.82,0001.13,0000.86
2021-11-22 00:51:00,,0832.3,5.00,0.00,27.1,26.0,00.0,36.2,28.7,06.2,0000.0,0001.81,0001.13,0000.87
2021-11-22 00:52:00,,0832.3,5.00,0.00,27.1,26.1,00.0,36.2,28.8,06.2,0000.0,0001.85,0001.14,0000.87
2021-11-22 00:53:00,,0832.3,5.00,0.00,27.1,26.0,00.0,36.2,28.7,06.2,0000.0,0001.81,0001.11,0000.86
2021-11-22 00:54:00,,0832.3,4.99,0.00,27.1,26.1,00.0,36.2,28.8,06.2,0000.0,0001.70,0001.10,0000.85
2021-11-22 00:55:00,,0832.3,5.00,0.00,27.1,26.1,00.0,36.2,28.8,06.2,0000.0,0001.68,0001.11,0000.85
2021-11-22 00:56:00,,0832.3,5.00,0.00,27.1,26.1,00.0,36.2,28.8,06.2,0000.0,0001.67,0001.09,0000.85
2021-11-22 00:57:00,,0832.2,4.99,0.00,27.1,26.1,00.0,36.2,28.8,06.1,0000.0,0001.75,0001.11,0000.84
2021-11-22 00:58:00,,0832.2,4.99,0.00,27.1,26.1,00.0,36.2,28.8,06.1,0000.0,0001.83,0001.10,0000.84
2021-11-22 00:59:00,,0832.2,5.00,0.00,27.1,26.1,00.0,36.2,28.8,06.0,0000.0,0001.80,0001.08,0000.84
